Weather History for KAFP - February, 2012

Change the Weather History Date:

Monday, February 20, 2012

  Actual Average (KCLT) Record (KCLT)
Temperature  
Mean Temperature 40 °F 45 °F  
Max Temperature 51 °F 56 °F 77 °F (2014)
Min Temperature 30 °F 34 °F 7 °F (2015)
Degree Days  
Heating Degree Days 24 20  
Month to date heating degree days 440  
Since 1 July heating degree days 2547  
Cooling Degree Days 0 0  
Month to date cooling degree days 0  
Year to date cooling degree days 0  
Moisture  
Dew Point 31 °F    
Average Humidity 72    
Maximum Humidity 100    
Minimum Humidity 38    
Precipitation  
Precipitation 0.00 in 0.13 in 1.82 in (1905)
Month to date precipitation 2.29  
Year to date precipitation 5.70  
Snow  
Snow 0.00 in 0.10 in 0.10 in (1919)
Month to date snowfall 0.9  
Since 1 July snowfall 3.4  
Snow Depth -    
Sea Level Pressure  
Sea Level Pressure 30.18 in    
Wind  
Wind Speed 6 mph (North)    
Max Wind Speed 10 mph    
Max Gust Speed 16 mph    
Visibility 10 miles    
Events Rain    
T = Trace of Precipitation, MM = Missing Value Source: NWS Daily Summary

Daily Weather History Graph

Daily Weather History Graph

Search for Another Location

Airport or City:

Trip Planner

Search our weather history database for the weather conditions in past years. The results will help you decide how hot, cold, wet, or windy it might be!

Date:

Astronomy

Feb. 20, 2012 Rise Set
Actual Time 7:01 AM EST 6:07 PM EST
Civil Twilight 6:35 AM EST 6:33 PM EST
Nautical Twilight 6:06 AM EST 7:02 PM EST
Astronomical Twilight 5:36 AM EST 7:31 PM EST
Moon 5:55 AM EST (2/20) 5:10 PM EST (2/20)
Length of Visible Light 11h 57m
Length of Day
11h 06m
Waning Crescent, 2% of the Moon is Illuminated
Feb 20
Waning Crescent
Feb 21
New
Feb 29
First Quarter
Mar 8
Full
Mar 14
Last Quarter

Hourly Weather History & Observations

Time (EST) Temp. Windchill Dew Point Humidity Pressure Visibility Wind Dir Wind Speed Gust Speed Precip Events Conditions
12:15 AM 35.6 °F 28.0 °F 32.0 °F 87% 29.95 in 10.0 mi NNW 10.4 mph - N/A Rain Light Rain
12:35 AM 35.6 °F 28.6 °F 32.0 °F 87% 29.95 in 10.0 mi North 9.2 mph - N/A   Overcast
12:55 AM 35.6 °F 28.0 °F 32.0 °F 87% 29.96 in 10.0 mi NNW 10.4 mph - N/A   Overcast
1:15 AM 35.6 °F 29.9 °F 32.0 °F 87% 29.98 in 10.0 mi North 6.9 mph - N/A   Overcast
1:35 AM 35.6 °F 29.2 °F 32.0 °F 87% 29.99 in 10.0 mi North 8.1 mph - N/A   Overcast
1:55 AM 35.6 °F 29.2 °F 32.0 °F 87% 30.00 in 10.0 mi North 8.1 mph - N/A   Overcast
2:15 AM 35.6 °F 28.6 °F 32.0 °F 87% 30.00 in 10.0 mi North 9.2 mph - N/A   Overcast
2:35 AM 35.6 °F 31.7 °F 32.0 °F 87% 30.00 in 10.0 mi North 4.6 mph - N/A   Overcast
2:55 AM 35.6 °F 30.7 °F 32.0 °F 87% 30.00 in 10.0 mi North 5.8 mph - N/A   Mostly Cloudy
3:15 AM 35.6 °F 29.9 °F 32.0 °F 87% 30.00 in 10.0 mi North 6.9 mph - N/A   Clear
3:35 AM 33.8 °F 28.6 °F 32.0 °F 93% 30.02 in 10.0 mi North 5.8 mph - N/A   Clear
3:55 AM 33.8 °F 28.6 °F 32.0 °F 93% 30.04 in 10.0 mi NNW 5.8 mph - N/A   Clear
4:15 AM 33.8 °F 28.6 °F 32.0 °F 93% 30.05 in 10.0 mi North 5.8 mph - N/A   Clear
4:35 AM 33.8 °F - 32.0 °F 93% 30.06 in 10.0 mi Calm Calm - N/A   Clear
4:55 AM 32.0 °F 27.5 °F 30.2 °F 93% 30.09 in 10.0 mi West 4.6 mph - N/A   Clear
5:15 AM 32.0 °F 27.5 °F 32.0 °F 100% 30.11 in 10.0 mi WNW 4.6 mph - N/A   Clear
5:35 AM 32.0 °F 26.4 °F 30.2 °F 93% 30.09 in 10.0 mi North 5.8 mph - N/A   Clear
5:55 AM 32.0 °F 28.7 °F 30.2 °F 93% 30.10 in 10.0 mi North 3.5 mph - N/A   Clear
6:15 AM 32.0 °F 27.5 °F 30.2 °F 93% 30.11 in 10.0 mi North 4.6 mph - N/A   Clear
6:35 AM 32.0 °F - 30.2 °F 93% 30.12 in 10.0 mi Calm Calm - N/A   Clear
6:55 AM 32.0 °F - 30.2 °F 93% 30.13 in 10.0 mi Calm Calm - N/A   Clear
7:15 AM 32.0 °F - 30.2 °F 93% 30.15 in 10.0 mi Calm Calm - N/A   Clear
7:35 AM 30.2 °F - 28.4 °F 93% 30.16 in 7.0 mi Calm Calm - N/A   Clear
7:55 AM 32.0 °F - 32.0 °F 100% 30.18 in 10.0 mi Calm Calm - N/A   Clear
8:15 AM 33.8 °F - 32.0 °F 93% 30.20 in 10.0 mi Calm Calm - N/A   Clear
8:35 AM 35.6 °F - 32.0 °F 87% 30.21 in 10.0 mi Calm Calm - N/A   Clear
8:55 AM 37.4 °F - 32.0 °F 81% 30.22 in 10.0 mi Calm Calm - N/A   Clear
9:15 AM 39.2 °F 33.6 °F 32.0 °F 75% 30.23 in 10.0 mi NNW 8.1 mph - N/A   Clear
9:35 AM 41.0 °F 36.4 °F 32.0 °F 70% 30.24 in 10.0 mi NNW 6.9 mph - N/A   Clear
9:55 AM 42.8 °F 38.0 °F 32.0 °F 66% 30.24 in 10.0 mi NNW 8.1 mph - N/A   Clear
10:15 AM 44.6 °F 40.2 °F 32.0 °F 61% 30.25 in 10.0 mi North 8.1 mph - N/A   Clear
10:35 AM 44.6 °F 39.7 °F 32.0 °F 61% 30.26 in 10.0 mi North 9.2 mph - N/A   Clear
10:55 AM 44.6 °F 40.2 °F 30.2 °F 57% 30.26 in 10.0 mi NNE 8.1 mph 16.1 mph N/A   Scattered Clouds
11:15 AM 46.4 °F 41.9 °F 30.2 °F 53% 30.26 in 10.0 mi North 9.2 mph - N/A   Clear
11:35 AM 46.4 °F 42.4 °F 28.4 °F 50% 30.26 in 10.0 mi North 8.1 mph - N/A   Clear
11:55 AM 46.4 °F 42.4 °F 30.2 °F 53% 30.26 in 10.0 mi NE 8.1 mph - N/A   Scattered Clouds
12:15 PM 48.2 °F - 30.2 °F 50% 30.26 in 10.0 mi NNW 8.1 mph - N/A   Scattered Clouds
12:35 PM 50.0 °F - 30.2 °F 47% 30.25 in 10.0 mi North 6.9 mph - N/A   Scattered Clouds
12:55 PM 50.0 °F - 28.4 °F 43% 30.25 in 10.0 mi North 9.2 mph - N/A   Clear
1:15 PM 50.0 °F - 28.4 °F 43% 30.25 in 10.0 mi NE 6.9 mph - N/A   Clear
1:35 PM 50.0 °F - 26.6 °F 40% 30.25 in 10.0 mi North 10.4 mph - N/A   Clear
1:55 PM 51.8 °F - 28.4 °F 41% 30.24 in 10.0 mi ENE 8.1 mph - N/A   Clear
2:15 PM 51.8 °F - 26.6 °F 38% 30.24 in 10.0 mi North 3.5 mph - N/A   Clear
2:35 PM 51.8 °F - 26.6 °F 38% 30.24 in 10.0 mi North 6.9 mph - N/A   Clear
2:55 PM 51.8 °F - 28.4 °F 41% 30.24 in 10.0 mi North 8.1 mph - N/A   Clear
3:15 PM 51.8 °F - 28.4 °F 41% 30.23 in 10.0 mi North 3.5 mph 16.1 mph N/A   Clear
3:35 PM 51.8 °F - 28.4 °F 41% 30.24 in 10.0 mi Calm Calm - N/A   Clear
4:15 PM 51.8 °F - 26.6 °F 38% 30.23 in 10.0 mi NNE 4.6 mph - N/A   Clear
4:35 PM 51.8 °F - 28.4 °F 41% 30.23 in 10.0 mi North 5.8 mph - N/A   Clear
4:55 PM 51.8 °F - 26.6 °F 38% 30.24 in 10.0 mi NNE 3.5 mph - N/A   Clear
5:15 PM 51.8 °F - 26.6 °F 38% 30.26 in 10.0 mi North 3.5 mph - N/A   Clear
5:35 PM 50.0 °F - 26.6 °F 40% 30.26 in 10.0 mi Calm Calm - N/A   Clear
5:55 PM 46.4 °F - 30.2 °F 53% 30.27 in 10.0 mi Calm Calm - N/A   Clear
6:15 PM 44.6 °F - 32.0 °F 61% 30.28 in 10.0 mi Calm Calm - N/A   Clear
6:35 PM 42.8 °F - 32.0 °F 66% 30.29 in 10.0 mi Calm Calm - N/A   Clear
6:55 PM 39.2 °F - 32.0 °F 75% 30.28 in 10.0 mi Calm Calm - N/A   Clear
7:15 PM 37.4 °F - 32.0 °F 81% 30.30 in 10.0 mi Calm Calm - N/A   Clear
7:35 PM 35.6 °F - 32.0 °F 87% 30.29 in 10.0 mi Calm Calm - N/A   Clear
7:55 PM 35.6 °F - 32.0 °F 87% 30.30 in 10.0 mi Calm Calm - N/A   Clear
8:15 PM 35.6 °F - 32.0 °F 87% 30.31 in 10.0 mi Calm Calm - N/A   Clear
8:35 PM 33.8 °F - 32.0 °F 93% 30.31 in 10.0 mi Calm Calm - N/A   Clear
8:55 PM 33.8 °F - 32.0 °F 93% 30.32 in 10.0 mi Calm Calm - N/A   Clear
9:15 PM 32.0 °F - 32.0 °F 100% 30.33 in 10.0 mi Calm Calm - N/A   Clear
9:35 PM 32.0 °F - 30.2 °F 93% 30.33 in 10.0 mi Calm Calm - N/A   Clear
9:55 PM 32.0 °F - 30.2 °F 93% 30.33 in 10.0 mi Calm Calm - N/A   Clear
10:15 PM 32.0 °F - 30.2 °F 93% 30.34 in 10.0 mi Calm Calm - N/A   Clear
10:35 PM 32.0 °F - 30.2 °F 93% 30.33 in 7.0 mi Calm Calm - N/A   Clear
11:15 PM 30.2 °F - 30.2 °F 100% 30.33 in 7.0 mi Calm Calm - N/A   Clear
11:35 PM 30.2 °F - 30.2 °F 100% 30.34 in 7.0 mi Calm Calm - N/A   Clear
11:55 PM 30.2 °F - 28.4 °F 93% 30.34 in 10.0 mi Calm Calm - N/A   Clear